sat.trackr.live / text

‹ back to catalog

CHECKMATE 4

NORAD 56164 · 2023-050C

PAYLOAD ACTIVE UNKNOWN

§ Identity

Operator
Country
US
Launch date
2023-04-02
Launch site
AFWTR
Launch vehicle
Mass (kg)
RCS (m²)

External: N2YO · Heavens-Above · Gunter

§ Orbital elements

Epoch: 2026-09-21T16:14:04.609536Z

Period
103.98 min
Inclination
81.0046°
Eccentricity
0.0006557
Mean motion
13.84821277 rev/d
Perigee alt
942.0 km
Apogee alt
951.6 km
Semi-major
7,325.0 km
B*
1.1171e-5
RAAN
339.3115°
Arg perigee
80.6769°
Mean anomaly
279.5129°
Rev number
17,549

§ Raw data

CHECKMATE 41 56164U 23050C   26264.67644224  .00000024  00000+0  11171-4 0  99972 56164  81.0046 339.3115 0006557  80.6769 279.5129 13.84821277175491

JSON: /api/v1/satellites/56164 · /tle

For live sub-satellite position, see the globe view (requires WebGL).

§ Visibility from observer

Set your observer location to see the next 7 days of passes ≥ 10°. The values pass through the URL so the page stays shareable.

No JS? Fill the form by hand. The geolocation button needs JavaScript.